Location: Artassenx
(43.8467°N, 0.3978°W)
Time: 09:21:14
(UTC+00:00)

Daily predictions for brighter satellites

Satellite Brightness Start Highest point End
(mag) Time Altitude Azimuth Time Altitude Azimuth Time Altitude Azimuth
Iridium 4 Rocket 4.0 16:59:38 10° SSW 17:04:41 61° W 17:09:21 10° N
Cosmos 2233 Rocket 4.0 17:00:40 10° S 17:06:55 75° E 17:13:15 10° N
Cosmos 1725 Rocket 4.3 17:01:40 10° SSW 17:07:56 75° W 17:14:16 10° N
Cosmos 407 Rocket 3.9 17:03:06 10° S 17:07:58 44° ESE 17:12:51 10° NNE
CBERS-1 4.3 17:03:42 10° S 17:08:48 77° WSW 17:13:57 10° NNW
Cosmos 2061 Rocket 4.0 17:03:12 10° S 17:09:27 71° E 17:15:40 10° NNE
RESURS DK-1 3.1 17:06:36 10° N 17:10:09 29° NE 17:13:40 10° ESE
Cosmos 1782 Rocket 3.6 17:09:23 10° S 17:13:49 89° WNW 17:18:15 10° N
ISS -3.8 17:10:34 10° WSW 17:13:54 88° SSE 17:17:12 10° ENE
CZ-2D R/B 3.2 17:12:08 10° SE 17:15:05 38° ENE 17:18:03 10° N
Cosmos 1869 3.5 17:12:24 10° SSE 17:15:40 36° E 17:18:55 10° NNE
SPOT 1/Viking Rocket 4.5 17:13:45 10° ESE 17:17:58 26° ENE 17:22:11 10° N
Cosmos 1300 Rocket 3.9 17:13:38 10° SSW 17:18:00 72° W 17:22:23 10° N
SJ-12 3.9 17:18:12 10° SSE 17:21:52 50° ENE 17:25:33 10° N
IGS 5A 3.9 17:18:49 10° S 17:22:46 65° W 17:26:46 10° NNW
COSMO-SKYMED 1 4.0 17:21:31 10° NE 17:24:09 16° E 17:26:47 10° SE
SL-12 R/B(2) 4.3 17:17:56 10° SSW 17:25:38 72° ESE 17:35:02 10° NE
AQUARIUS 4.3 17:21:27 10° SE 17:25:40 47° ENE 17:29:54 10° N
BREEZE-M DEB (TANK) 2.0 17:26:15 10° WSW 17:28:31 69° NNW 17:32:21 13° ENE
Cosmos 1400 Rocket 4.2 17:27:07 10° SE 17:29:43 18° E 17:31:12 14° ENE
Cosmos 540 Rocket 3.6 17:25:27 10° N 17:30:28 51° ENE 17:35:25 10° SE
Cosmos 1975 Rocket 3.0 17:29:39 10° N 17:34:01 88° WSW 17:38:24 10° S
Cosmos 1812 2.5 17:32:21 10° SSE 17:35:03 35° E 17:37:34 11° NNE
Cosmos 1763 Rocket 3.4 17:30:46 10° NNW 17:35:59 67° ENE 17:41:05 10° SSE
CORIOLIS 4.4 17:32:47 10° S 17:38:08 73° WSW 17:43:30 10° NNW
Cosmos 1140 Rocket 4.4 17:34:52 10° SW 17:39:53 50° WNW 17:44:54 10° N
Cosmos 2151 Rocket 4.3 17:36:18 10° SSE 17:40:14 32° E 17:44:14 10° NNE
SMAP 3.4 17:37:02 10° S 17:41:40 68° WSW 17:46:20 10° NNW
Cosmos 44 Rocket 3.2 17:38:02 10° SSW 17:42:44 70° ESE 17:47:06 13° NE
IRS-1C 4.2 17:37:53 10° SSE 17:43:12 85° WSW 17:48:34 10° NNW
Cosmos 2058 3.2 17:40:16 10° N 17:44:00 38° ENE 17:47:44 10° SSE
Cosmos 1943 Rocket 2.1 17:42:03 10° SSW 17:47:41 85° ESE 17:53:18 10° NNE
Okean 1 Rocket 4.0 17:46:34 10° SE 17:50:11 25° E 17:51:43 21° ENE
CZ-2D R/B 3.8 17:46:50 10° SE 17:50:42 41° ENE 17:54:40 10° N
SKYMED 2 3.8 17:46:48 10° NNE 17:51:01 46° E 17:55:11 10° S
PSLV R/B 4.1 17:48:49 10° SE 17:52:21 30° ENE 17:55:53 10° N
Helios 1A Rocket 3.3 17:51:57 27° ENE 17:52:32 29° E 17:55:31 10° SSE
Landsat 7 4.0 17:49:29 10° S 17:54:08 71° WSW 17:58:47 10° NNW
Cosmos 2082 Rocket 2.3 17:49:04 10° NNW 17:54:32 50° ENE 17:59:58 10° SE
Cosmos 1072 Rocket 4.5 17:50:04 10° S 17:56:04 57° E 18:02:02 10° NNE
Cosmos 2278 Rocket 2.2 17:50:48 10° SSW 17:56:27 87° WNW 18:02:10 10° NNE
Aureole 3 Rocket 2.1 17:56:44 10° S 17:59:45 88° W 18:02:55 10° N
BREEZE-M DEB (TANK) 2.8 17:57:37 10° WSW 18:00:10 76° NNW 18:03:16 23° ENE
BREEZE-M DEB (TANK) 3.3 17:58:55 10° W 18:01:17 47° NNW 18:04:09 21° NE
SL-16 R/B 4.4 18:01:55 10° N 18:07:06 28° WNW 18:12:16 10° WSW
Cosmos 2369 Rocket 4.2 18:04:03 10° SE 18:04:20 11° SE 18:04:20 11° SE
Cosmos 2251 Rocket 3.4 18:02:02 10° SSW 18:07:18 81° ESE 18:12:37 10° NNE
YAOGAN 1 2.6 18:06:01 10° SSE 18:10:08 50° ENE 18:14:16 10° N
Cosmos 371 Rocket 3.5 18:06:24 10° S 18:10:57 45° ESE 18:12:52 30° NE
Cosmos 304 Rocket 3.9 18:07:30 10° S 18:12:02 48° ESE 18:13:56 30° NE
SJ 16-02 1.2 18:09:22 10° S 18:13:36 62° ESE 18:15:42 28° NE
SL-19 R/B 4.1 18:09:17 10° SSE 18:14:22 58° ENE 18:19:29 10° N
Cosmos 841 Rocket 3.9 18:10:41 10° N 18:15:38 40° ENE 18:17:16 32° ESE
CZ-4C R/B 4.5 18:16:48 10° NW 18:19:08 13° N 18:21:42 10° NNE
Nadezhda 4 Rocket 3.9 18:15:10 10° N 18:21:28 73° E 18:27:40 10° SSE
Resurs 1-3 3.4 18:17:50 10° SSE 18:22:04 64° ENE 18:26:21 10° N
Cosmos 1862 2.9 18:20:03 10° N 18:23:42 83° E 18:27:19 10° S
ATLAS 2AS CENTAUR R/B 3.6 18:19:02 10° NNW 18:24:39 26° NNE 18:25:35 26° NE
ARIANE 5 R/B 4.2 18:20:27 10° SSW 18:24:56 34° W 18:29:28 10° NNW
COSMOS 2406 3.3 18:21:47 10° NNW 18:27:19 50° ENE 18:29:08 37° ESE
Cosmos 1656 Rocket 3.9 18:22:28 10° S 18:27:40 44° ESE 18:28:33 41° E
Cosmos 468 Rocket 4.0 18:24:05 10° NNW 18:29:17 78° WSW 18:34:25 10° SSE
Okean 2 Rocket 3.0 18:30:35 10° S 18:34:59 86° WNW 18:37:52 21° N
Cosmos 2195 Rocket 4.4 18:29:05 10° N 18:35:21 63° E 18:41:37 10° SSE
Cosmos 1536 Rocket 3.7 18:31:25 10° NNW 18:35:52 76° W 18:40:13 10° S
MOS 1 Rocket 4.4 18:32:39 10° SSW 18:36:42 41° W 18:40:56 10° NNW
USA 215 4.1 18:31:15 10° SSE 18:37:29 48° SW 18:43:47 10° WNW
Cosmos 1190 Rocket 4.3 18:32:58 10° SSW 18:38:13 66° WNW 18:42:26 16° NNE
Cosmos 676 Rocket 3.9 18:35:48 10° SSW 18:41:06 82° ESE 18:43:15 37° NNE
Cosmos 1428 Rocket 4.4 18:34:49 10° N 18:41:08 85° E 18:47:27 10° S
Resurs 01 Rocket 3.9 18:46:22 12° N 18:46:22 12° N 18:46:48 10° N
Cosmos 489 Rocket 4.3 18:36:58 10° NNW 18:43:16 87° ENE 18:49:28 10° SSE
Cosmos 2344 4.0 18:35:33 10° NNW 18:43:21 55° NE 18:47:32 35° ESE
Meteor 2-3 Rocket 3.6 18:41:31 10° N 18:47:12 68° ENE 18:49:59 30° SSE
BlueWalker 3 3.8 18:47:00 10° SSW 18:48:23 20° SSW 18:48:23 20° SSW
ISS -1.7 18:48:06 10° WNW 18:50:07 23° NW 18:50:07 23° NW
Cosmos 1954 Rocket 4.4 18:45:59 10° SSW 18:51:12 62° WNW 18:54:18 24° N
COSMO-SKYMED 1 3.5 18:57:48 26° NNW 18:59:41 43° WNW 19:03:35 10° SW
USA 281 3.5 19:02:00 47° NE 19:02:00 47° NE 19:07:37 10° NNW
Cosmos 1400 Rocket 4.4 19:01:30 10° SW 19:04:55 31° WNW 19:05:53 27° NW
Cosmos 1634 Rocket 4.1 19:02:27 10° S 19:07:37 59° SSE 19:07:37 59° SSE
DELTA 2 R/B (1) 4.5 19:04:08 10° SW 19:08:21 36° S 19:08:21 36° S
BREEZE-M DEB (TANK) 4.3 19:21:50 10° WNW 19:37:08 67° SW 19:37:20 67° SSW
Cosmos 2082 Rocket 4.2 19:33:47 10° NW 19:38:14 25° WSW 19:42:41 10° SSW
Cosmos 1092 Rocket 4.4 19:32:09 10° NNW 19:38:17 60° W 19:39:48 47° SW
Cosmos 2369 Rocket 4.2 19:44:45 10° SSW 19:46:11 19° SSW 19:46:11 19° SSW
SJ 16-02 4.1 19:49:47 10° W 19:52:10 14° NW 19:52:17 14° NW
ATLAS 2AS CENTAUR R/B 4.0 20:09:36 10° NW 20:13:01 33° NW 20:13:01 33° NW
